Alabaster, AL

5:27 AM CDT on May 29, 2017 (GMT -0500)
Shelby County

Weather History for KEET - July, 2013

Change the Weather History Date:

Tuesday, July 2, 2013

  Actual Average Record
Temperature  
Mean Temperature 76 °F 80 °F  
Max Temperature 85 °F 90 °F 102 °F (1970)
Min Temperature 66 °F 70 °F 54 °F (1979)
Cooling Degree Days 11 15  
Month to date cooling degree days 23 30  
Year to date cooling degree days 687 673  
Since 1 June cooling degree days 435 404  
Growing Degree Days 25 (Base 50)    
Moisture  
Dew Point 66 °F    
Average Humidity 72    
Maximum Humidity 93    
Minimum Humidity 51    
Precipitation  
Precipitation T in 0.15 in 1.72 in (1999)
Month to date precipitation 0.09 0.31  
Year to date precipitation 33.79 28.87  
Sea Level Pressure  
Sea Level Pressure 29.97 in    
Wind  
Wind Speed 3 mph (WSW)    
Max Wind Speed 10 mph    
Max Gust Speed 14 mph    
Visibility 10 miles    
Events      
T = Trace of Precipitation, MM = Missing Value Source: NWS Daily Summary

Daily Weather History Graph

Daily Weather History Graph

Search for Another Location

Airport or City:

Trip Planner

Search our weather history database for the weather conditions in past years. The results will help you decide how hot, cold, wet, or windy it might be!

Date:

Astronomy

Jul. 02, 2013 Rise Set
Actual Time 5:42 AM CDT 8:00 PM CDT
Civil Twilight 5:13 AM CDT 8:28 PM CDT
Nautical Twilight 4:38 AM CDT 9:03 PM CDT
Astronomical Twilight 4:00 AM CDT 9:42 PM CDT
Moon 1:35 AM CDT (7/2) 3:20 PM CDT (7/2)
Length of Visible Light 15h 15m
Length of Day
14h 17m
Waning Crescent, 26% of the Moon is Illuminated
Jul 2
Waning Crescent
Jul 8
New
Jul 15
First Quarter
Jul 22
Full
Jul 29
Last Quarter

Hourly Weather History & Observations

Time (CDT) Temp. Heat Index Dew Point Humidity Pressure Visibility Wind Dir Wind Speed Gust Speed Precip Events Conditions
12:53 AM 69.1 °F - 66.0 °F 90% 29.90 in 10.0 mi Calm Calm - N/A   Clear
1:53 AM 69.1 °F - 66.0 °F 90% 29.89 in 10.0 mi Calm Calm - N/A   Clear
2:53 AM 68.0 °F - 66.0 °F 93% 29.90 in 9.0 mi Calm Calm - N/A   Clear
3:53 AM 68.0 °F - 66.0 °F 93% 29.91 in 8.0 mi Calm Calm - N/A   Clear
4:53 AM 66.9 °F - 64.9 °F 93% 29.92 in 9.0 mi Calm Calm - N/A   Scattered Clouds
5:53 AM 66.9 °F - 64.0 °F 90% 29.94 in 9.0 mi Calm Calm - N/A   Clear
6:53 AM 69.1 °F - 66.0 °F 90% 29.95 in 8.0 mi Calm Calm - N/A   Clear
7:53 AM 72.0 °F - 66.9 °F 84% 29.97 in 10.0 mi Calm Calm - N/A   Clear
9:53 AM 78.1 °F - 66.9 °F 68% 29.99 in 10.0 mi SSW 4.6 mph - N/A   Clear
10:53 AM 82.0 °F 84.1 °F 66.0 °F 58% 29.99 in 10.0 mi Variable 5.8 mph - N/A   Partly Cloudy
11:53 AM 82.9 °F 84.6 °F 64.9 °F 54% 29.99 in 10.0 mi SSW 8.1 mph - N/A   Scattered Clouds
12:53 PM 84.0 °F 85.4 °F 64.0 °F 51% 29.98 in 10.0 mi West 8.1 mph - N/A   Partly Cloudy
1:53 PM 84.0 °F 85.4 °F 64.0 °F 51% 29.97 in 10.0 mi SW 5.8 mph - N/A   Partly Cloudy
2:53 PM 84.9 °F 86.6 °F 64.9 °F 51% 29.96 in 10.0 mi WNW 5.8 mph - N/A   Clear
3:53 PM 84.0 °F 85.8 °F 64.9 °F 53% 29.97 in 10.0 mi West 5.8 mph - N/A   Clear
4:53 PM 84.0 °F 85.4 °F 64.0 °F 51% 29.96 in 10.0 mi WNW 5.8 mph - N/A   Partly Cloudy
5:53 PM 82.9 °F 84.4 °F 64.0 °F 53% 29.97 in 10.0 mi Variable 3.5 mph - N/A   Clear
6:53 PM 82.0 °F 83.8 °F 64.9 °F 56% 29.99 in 10.0 mi WNW 4.6 mph - N/A   Clear
7:53 PM 78.1 °F - 66.9 °F 68% 30.00 in 10.0 mi Calm Calm - N/A   Clear
8:28 PM 75.2 °F - 66.2 °F 73% 30.02 in 10.0 mi Calm Calm - N/A   Partly Cloudy
8:53 PM 75.0 °F - 66.9 °F 76% 30.01 in 10.0 mi Calm Calm - N/A   Clear
9:53 PM 73.0 °F - 68.0 °F 84% 30.04 in 10.0 mi Calm Calm - N/A   Clear
10:53 PM 73.9 °F - 69.1 °F 85% 30.03 in 10.0 mi Calm Calm - N/A   Clear
11:53 PM 73.0 °F - 69.1 °F 87% 30.02 in 10.0 mi Calm Calm - N/A   Partly Cloudy